GFSGBSN_925_spd_000.txt.gz
Wind_Speed
25 22 23 24 25 22 21 22 21 20 20 21 22 22 19 18 16 16 14 14 13 11 10 9 8 8 4 2 9 5 4 8 18 20 14 6 5 5 5 5 4 3 4 4 4 8 7
27 25 24 25 26 24 23 22 22 20 20 22 20 19 17 16 14 14 13 12 12 10 9 8 6 5 2 4 3 4 11 7 14 24 13 11 8 7 4 4 5 6 3 3 5 5 5
30 26 27 26 27 25 23 22 21 22 20 21 18 17 14 13 13 13 12 11 10 9 8 7 4 1 3 13 2 6 16 12 15 18 7 21 17 6 4 4 3 4 5 6 6 4 4
32 28 27 28 27 26 23 22 20 22 20 18 15 15 12 12 12 11 10 10 8 7 6 5 3 3 7 5 11 15 7 6 13 16 20 9 18 4 3 3 6 6 5 4 3 3 3
34 31 28 29 28 26 24 22 20 21 19 17 14 13 11 10 10 10 9 7 6 5 4 3 3 4 8 8 7 3 3 2 4 3 4 5 9 4 5 5 5 6 3 3 1 3 3
36 34 31 28 28 27 25 22 20 21 17 15 12 11 10 9 9 9 7 5 2 1 2 3 3 2 6 2 4 2 3 4 3 3 4 7 6 5 5 5 4 5 3 1 4 1 12
39 36 33 29 29 27 25 22 20 18 16 12 11 9 8 10 9 10 11 5 3 2 5 8 2 3 3 9 3 3 2 3 4 7 3 6 8 4 3 4 4 4 4 3 2 4 8
41 38 34 31 30 28 25 22 19 18 14 12 10 8 8 10 11 12 6 3 5 3 3 10 5 7 10 3 3 3 1 3 4 3 1 7 4 2 3 3 6 6 6 3 3 4 9
44 40 36 32 32 29 25 22 18 17 14 13 9 8 9 11 11 10 10 11 5 4 1 3 5 4 3 7 3 1 2 2 2 3 5 6 2 2 1 5 6 4 4 3 5 10 6
48 42 37 34 33 29 26 22 20 17 14 13 10 10 13 16 9 6 7 4 5 7 4 5 1 4 2 4 4 3 2 4 5 5 6 5 3 3 5 6 4 3 1 5 7 4 4
52 44 38 36 34 31 26 22 20 17 15 14 12 14 18 19 2 5 2 5 4 2 4 4 3 1 2 4 4 3 5 5 4 4 5 3 2 5 7 1 3 3 6 6 3 5 5
52 45 40 37 35 31 27 23 21 17 16 16 14 16 18 18 8 6 6 3 2 6 3 2 1 1 3 4 3 3 6 8 4 6 6 3 2 4 0 3 2 4 6 6 4 3 2
49 46 42 38 35 33 27 23 21 18 17 17 16 19 25 10 3 4 2 3 5 4 1 2 3 2 3 5 6 5 5 6 4 5 4 6 4 4 2 3 3 6 5 3 3 3 4
52 48 43 39 35 32 27 24 21 20 18 19 17 18 21 11 5 4 3 6 2 3 5 1 3 3 4 2 4 5 3 3 5 5 3 4 5 3 4 2 4 2 5 5 6 3 3
55 50 44 39 36 32 28 24 22 21 20 21 17 15 6 4 5 5 6 4 6 6 3 5 4 4 1 2 5 4 3 2 1 1 5 4 1 3 2 1 3 2 2 3 7 3 3
57 49 44 40 36 31 28 24 23 22 23 23 14 10 4 6 5 6 5 4 3 4 2 3 4 3 4 3 3 3 1 1 2 1 2 5 4 2 3 2 5 2 5 3 3 3 2
55 49 44 40 35 30 28 24 23 24 25 24 7 3 2 5 4 5 4 5 5 6 4 3 5 4 3 4 3 2 3 1 0 2 3 3 4 4 1 3 2 2 2 6 5 3 4
53 49 44 39 33 30 27 25 24 26 27 24 5 3 1 5 4 1 4 4 4 4 1 2 4 3 5 3 3 3 5 2 2 1 3 1 5 2 2 2 2 2 3 4 4 3 1
51 47 42 37 33 29 27 25 25 29 34 13 4 2 4 2 4 2 2 2 3 3 2 2 2 3 3 4 5 2 3 1 2 1 5 5 1 3 6 5 4 2 3 4 5 3 4
50 46 41 36 31 28 26 24 27 32 35 13 4 2 4 4 0 8 4 3 4 2 1 3 3 4 4 3 5 5 3 2 2 2 7 6 3 5 6 4 2 3 4 4 5 3 3
47 42 38 33 29 27 24 25 29 35 35 11 2 4 4 3 2 5 5 3 3 2 2 4 3 3 5 4 3 3 2 2 4 2 4 4 4 2 2 4 2 1 4 6 6 5 6
43 39 35 30 27 24 24 24 31 38 32 4 5 5 3 1 7 7 5 7 6 2 2 1 5 2 2 5 6 8 6 3 4 4 3 3 3 0 0 4 5 3 5 6 4 3 7
40 35 30 27 25 24 23 24 31 38 26 4 3 4 5 3 4 6 6 6 8 5 2 1 5 5 4 1 4 5 6 7 5 5 3 3 5 3 3 3 5 6 8 8 5 4 6
35 31 27 25 23 22 21 23 30 39 31 6 5 6 4 2 3 7 7 5 6 5 7 2 4 5 1 8 8 6 10 11 12 8 3 5 4 3 2 3 2 6 2 4 5 4 6
30 28 25 23 21 18 18 23 30 38 32 5 9 5 4 2 3 3 6 6 6 5 4 3 5 2 9 4 5 5 5 6 5 6 7 4 4 3 4 3 5 5 5 7 8 7 9
29 27 24 21 19 17 17 21 29 37 33 10 9 9 4 6 5 7 5 4 5 4 4 3 4 6 6 4 4 4 3 4 2 2 4 5 6 4 3 4 6 6 3 3 3 5 8
28 25 23 20 18 17 15 17 23 33 30 11 6 8 5 4 2 5 4 6 6 4 4 3 4 1 4 3 3 3 3 2 3 4 2 3 3 4 2 3 8 7 2 2 5 7 6
26 24 22 19 18 17 15 14 18 28 27 12 6 6 4 3 1 2 3 6 4 3 5 5 4 3 3 4 3 4 3 5 2 4 6 7 6 4 3 2 8 6 3 7 6 2 6
24 22 20 18 16 16 16 12 13 23 25 15 5 8 8 5 3 6 9 5 2 7 6 1 4 4 5 4 1 3 2 2 2 3 2 2 6 4 8 6 5 6 5 4 2 3 5

GFSGBSN_925_spd_003.txt.gz
Wind_Speed
29 26 24 22 19 21 21 21 21 20 20 21 19 22 21 18 17 14 14 12 10 10 9 9 8 9 4 2 9 2 4 14 21 18 15 6 5 5 5 5 6 4 2 2 4 6 9
30 29 26 24 22 22 24 23 22 21 20 21 20 21 18 17 15 13 12 10 8 8 8 6 5 4 1 4 3 4 5 7 17 20 10 9 6 6 3 2 4 4 4 5 5 5 3
31 31 29 27 25 24 24 23 22 21 20 20 20 20 16 15 13 12 10 7 6 7 6 5 2 1 2 12 3 4 10 7 16 21 6 16 9 2 4 2 3 4 7 6 7 3 4
32 32 31 29 27 26 22 23 22 21 21 20 20 18 14 13 11 10 7 5 5 4 3 3 2 2 8 5 9 13 14 8 11 17 17 5 16 1 2 2 5 4 4 4 2 1 4
38 33 32 30 28 27 24 24 21 21 21 18 19 16 13 10 9 7 5 4 4 3 2 3 4 1 9 9 6 3 5 2 7 8 11 8 12 3 2 4 3 7 3 3 4 9 2
38 35 35 32 30 28 26 24 21 22 20 18 17 14 10 8 7 6 5 6 5 5 3 4 1 2 7 2 4 3 1 2 4 7 6 2 3 3 3 3 4 4 4 2 5 4 11
29 40 37 35 31 29 27 25 23 21 20 16 16 12 8 7 8 10 12 7 4 1 5 6 3 4 5 9 4 3 3 1 3 7 4 1 4 4 3 3 3 5 3 6 3 3 7
33 40 38 37 34 30 28 26 23 21 19 15 13 11 7 8 12 12 11 3 5 1 2 12 6 7 10 5 2 3 2 3 4 3 2 6 5 2 5 5 6 5 6 4 5 4 6
37 30 42 39 36 32 29 27 24 21 18 15 12 10 8 13 13 10 9 14 4 3 2 3 6 4 3 7 2 1 2 2 4 3 2 6 2 3 5 4 7 4 7 4 5 7 8
40 36 43 41 38 34 30 28 25 22 19 16 12 10 14 18 9 7 7 3 4 6 4 4 3 2 3 3 3 2 3 4 4 4 3 6 2 4 4 3 1 4 4 11 11 2 3
38 35 35 45 40 36 31 29 26 23 19 17 14 13 21 19 8 6 1 4 5 3 3 4 2 2 3 4 3 3 4 5 6 4 2 0 3 3 5 2 1 4 6 7 3 4 3
36 37 36 47 42 38 34 30 27 24 20 17 17 15 22 21 9 9 5 2 4 6 3 2 2 2 4 6 4 4 4 5 4 5 5 3 2 2 3 2 4 10 6 6 3 2 0
39 37 37 45 44 40 36 31 28 24 21 18 18 18 28 15 5 1 4 2 5 4 2 2 3 3 4 2 4 4 4 4 3 4 3 4 2 1 1 5 3 5 4 2 1 1 3
37 36 37 39 45 42 37 32 29 24 21 18 18 18 26 26 12 2 1 5 3 3 5 1 3 3 4 2 3 4 3 3 5 4 3 4 0 2 4 2 4 2 4 4 5 4 2
35 37 36 37 45 43 38 33 30 25 21 17 17 15 12 24 23 22 3 4 6 6 3 6 3 5 1 1 4 3 3 2 1 1 4 3 1 2 3 1 1 3 2 2 6 2 1
37 37 36 38 48 44 38 34 30 26 22 23 18 10 7 9 10 7 5 5 3 4 2 2 4 2 3 2 3 3 1 1 2 1 1 5 3 1 1 2 6 1 6 3 2 4 3
36 38 37 45 50 44 39 34 31 27 24 26 10 3 6 9 10 5 4 5 5 5 5 5 5 3 3 4 3 2 5 1 2 1 2 3 3 2 1 0 4 3 2 5 4 1 3
38 37 36 48 49 43 39 34 31 28 23 27 7 3 4 11 3 1 4 5 3 3 3 4 4 3 5 3 4 4 6 1 1 1 5 1 4 3 1 0 1 1 3 4 3 4 1
38 33 41 48 48 44 40 35 32 28 36 17 4 2 3 4 4 0 2 2 2 2 1 2 2 3 2 4 4 2 3 2 1 3 5 5 1 3 3 2 1 2 2 4 5 2 5
34 33 37 45 48 44 40 36 32 30 37 13 4 3 3 3 1 8 5 3 1 2 2 2 4 3 4 2 3 4 3 2 2 3 7 5 3 4 7 3 1 4 4 4 3 3 4
21 30 42 49 46 43 39 35 32 32 40 5 1 3 3 3 1 5 4 6 5 2 1 2 3 2 5 4 2 3 2 2 3 1 3 2 4 2 1 1 1 2 4 8 7 4 6
31 35 45 47 43 41 36 34 31 32 42 3 4 5 3 2 6 6 1 6 6 2 1 2 5 3 2 5 6 8 6 4 4 2 2 2 4 2 4 1 3 3 5 7 6 3 10
39 37 43 42 40 36 34 31 32 36 40 7 3 4 5 3 3 6 6 6 8 5 1 3 5 4 3 1 3 4 6 8 5 5 3 2 6 3 3 2 2 5 9 10 5 5 7
38 41 40 37 35 33 30 30 31 37 41 5 5 6 4 2 2 6 8 4 6 6 5 3 3 4 1 12 9 9 12 13 13 10 3 5 4 2 2 1 1 4 2 2 9 6 12
37 38 35 32 30 29 27 27 31 39 45 5 9 6 4 3 3 4 6 5 6 4 4 3 4 1 10 3 4 4 4 5 5 7 7 3 4 3 3 3 5 4 3 5 6 5 10
36 33 29 29 27 25 25 27 32 39 46 8 11 12 5 7 6 7 6 5 5 4 3 3 4 6 5 3 3 4 3 4 1 1 1 4 5 3 3 2 4 4 2 3 2 4 2
30 28 27 25 23 22 23 27 34 41 46 14 8 10 6 4 1 6 5 6 5 4 4 4 5 1 3 2 3 3 3 1 3 4 2 2 3 3 2 3 7 6 1 2 3 4 1
29 27 26 24 21 19 20 26 34 42 43 15 8 10 3 3 1 1 5 6 3 2 5 5 4 2 3 3 3 3 3 4 2 3 5 5 5 3 3 1 6 5 2 5 4 2 2
28 26 25 23 21 17 17 24 32 41 41 17 6 8 9 5 3 5 10 6 2 7 6 0 3 4 4 4 1 3 2 1 2 3 1 3 4 3 7 4 4 5 4 2 2 3 3

GFSGBSN_925_spd_006.txt.gz
Wind_Speed
30 27 25 23 22 21 19 19 21 20 18 20 17 15 17 17 17 15 13 12 10 9 12 12 9 9 5 6 8 5 5 19 19 15 15 12 11 9 12 11 8 11 2 1 4 8 9
25 31 27 26 23 23 21 21 22 22 20 19 18 15 17 16 15 13 11 10 8 8 10 9 7 5 3 6 1 3 6 18 14 19 16 13 5 8 5 6 10 3 3 6 4 10 7
27 30 29 28 25 24 23 22 21 22 21 19 17 15 17 13 12 10 9 7 6 9 9 6 4 2 5 12 1 6 7 6 14 17 12 14 8 6 2 7 5 9 13 13 9 7 6
29 25 33 29 27 25 24 22 22 21 22 19 17 15 15 12 10 7 7 6 6 8 6 4 2 2 7 5 3 11 12 8 9 15 13 4 12 8 4 7 6 6 6 9 7 5 2
28 30 29 32 29 27 25 23 22 22 22 19 18 16 13 10 7 4 4 5 5 5 3 2 2 3 7 6 6 3 10 3 9 10 4 2 10 5 4 9 9 5 8 12 7 4 5
33 31 29 32 31 28 27 24 22 22 21 19 20 15 12 8 4 5 5 4 2 2 2 3 2 4 9 0 3 2 4 6 4 14 7 5 4 7 6 9 10 9 10 14 13 4 6
32 32 32 32 33 31 28 26 23 21 21 19 19 13 10 6 7 10 9 7 4 4 7 6 1 5 5 11 4 3 2 5 6 5 4 5 6 9 13 5 3 7 8 13 9 5 6
36 34 33 31 35 33 30 28 25 21 20 19 16 12 9 6 11 11 8 4 5 3 4 16 10 10 11 6 3 3 1 4 2 3 5 6 5 4 5 5 6 6 10 9 6 4 3
36 36 35 32 36 36 32 30 27 23 20 19 15 12 7 10 12 9 11 14 3 6 4 4 7 5 3 7 2 3 3 2 1 3 1 7 7 5 7 8 9 6 6 10 7 7 4
37 38 37 36 30 38 34 31 28 24 21 19 15 11 13 16 8 7 9 12 13 10 5 6 5 4 4 3 3 3 3 2 2 3 4 6 4 6 8 6 2 7 3 9 13 12 8
38 39 38 39 34 37 36 32 29 25 22 20 16 12 20 20 2 7 1 3 6 4 6 7 5 4 3 4 5 3 3 3 4 5 5 4 7 7 6 3 1 3 11 10 8 7 6
41 40 40 40 38 36 40 34 30 26 23 21 18 13 21 20 8 10 6 2 5 4 4 7 6 7 8 2 2 2 3 4 3 3 6 6 2 2 3 5 2 13 11 7 3 3 7
43 41 40 39 37 35 40 35 31 27 24 21 18 16 29 11 4 1 4 6 4 6 2 7 10 7 7 4 4 3 6 8 6 8 8 7 4 5 5 11 8 7 11 5 6 6 8
43 41 41 40 37 36 37 38 33 29 25 21 16 18 29 20 9 3 4 5 7 3 8 2 6 8 9 4 3 3 8 8 2 3 9 10 6 6 3 2 6 9 7 4 5 6 6
43 40 41 42 40 36 38 40 34 29 26 20 14 15 10 21 27 4 4 6 7 5 6 8 8 13 6 5 3 5 3 5 2 1 4 5 4 4 2 2 3 5 7 3 2 0 4
43 40 39 41 42 36 38 42 35 31 27 23 16 9 12 12 15 12 6 8 4 3 3 6 13 10 12 9 8 7 8 3 4 1 3 4 4 2 5 3 7 3 8 3 3 3 5
39 39 37 39 43 35 39 42 37 33 29 24 12 5 9 16 17 6 9 9 4 5 5 8 8 6 9 8 6 8 7 4 3 4 0 5 2 5 3 6 6 4 4 1 0 2 3
38 37 38 39 40 36 40 41 38 35 30 31 10 7 12 23 8 6 11 6 3 4 3 6 4 5 10 9 8 8 9 1 3 4 5 3 2 4 7 3 2 2 3 6 4 4 0
31 36 37 36 39 35 41 41 40 39 40 18 8 5 5 8 9 6 4 6 4 4 5 7 7 2 2 7 5 5 6 2 3 5 6 6 4 4 5 5 4 7 6 3 5 1 5
28 35 37 36 36 34 44 42 43 41 40 23 8 8 5 6 4 14 12 11 9 2 2 2 4 3 6 4 0 6 7 3 3 2 2 3 3 5 7 0 1 6 11 10 8 4 4
30 32 31 35 32 33 47 44 45 43 42 13 5 8 11 9 10 14 14 12 14 5 3 4 3 5 6 5 4 5 5 5 4 4 3 3 5 4 1 1 3 4 8 13 15 12 7
28 28 33 30 28 33 47 44 45 44 41 8 6 5 4 14 14 12 10 11 16 7 5 6 6 7 6 5 6 9 9 6 4 6 5 1 3 3 4 2 2 6 10 11 15 14 15
28 32 33 32 36 40 44 45 45 45 45 10 4 1 10 3 11 14 9 13 13 10 1 1 5 6 4 3 5 8 7 8 5 5 6 3 6 4 3 1 2 5 15 17 11 11 12
28 33 34 38 40 44 44 46 45 47 43 20 5 3 7 6 9 13 13 10 11 10 6 3 4 3 5 16 16 14 14 12 10 9 3 5 4 1 1 2 3 1 1 2 12 15 13
31 31 35 30 43 46 45 43 43 45 44 13 6 4 4 4 9 9 14 13 7 5 4 5 4 3 16 3 3 3 2 2 4 7 5 1 4 3 3 4 6 9 4 4 5 5 4
31 34 34 41 40 43 40 40 41 43 50 10 7 6 3 7 8 9 16 12 7 6 5 4 6 14 1 2 2 3 4 2 4 4 3 4 3 1 3 3 4 3 3 0 2 6 6
31 36 34 34 37 35 36 39 40 43 53 10 6 9 5 4 3 10 13 12 5 5 5 6 8 3 1 2 2 2 3 1 3 5 3 2 1 4 4 4 5 1 1 3 3 3 3
25 26 33 32 31 33 36 38 39 45 55 14 6 9 3 3 5 5 5 6 5 6 6 8 6 2 2 2 2 3 2 4 3 2 4 4 5 3 2 3 4 5 5 3 3 2 4
26 26 26 27 30 33 35 36 39 45 55 18 5 8 12 5 4 3 4 1 2 6 6 12 1 5 5 3 1 3 2 1 1 2 3 3 3 1 6 1 3 8 6 3 3 7 8

GFSGBSN_925_spd_009.txt.gz
Wind_Speed
21 20 29 26 24 22 21 20 19 17 17 17 16 17 17 17 19 18 17 14 12 11 12 12 12 13 7 7 11 5 2 17 23 13 14 11 11 12 12 12 14 12 4 2 3 4 7
26 24 22 31 26 25 22 21 20 18 17 18 17 17 17 16 18 16 14 12 10 10 11 10 10 6 7 9 2 3 8 17 16 19 16 14 10 10 8 11 13 11 9 3 6 6 5
26 27 25 23 30 26 24 22 21 19 17 18 16 17 16 15 16 15 11 10 9 9 9 8 7 5 8 13 1 3 8 10 12 17 12 14 12 6 4 6 3 4 7 11 3 9 10
27 26 28 26 26 28 26 24 22 20 18 17 16 18 14 15 14 12 8 8 9 7 9 5 3 5 8 4 7 9 11 10 13 15 14 3 8 11 8 3 8 12 12 13 19 11 7
28 28 29 28 27 29 28 26 23 21 20 18 16 17 14 14 12 9 6 6 8 8 5 1 2 6 6 4 6 4 11 8 7 8 7 5 6 9 6 11 10 7 9 14 9 8 12
29 30 30 32 28 28 29 27 25 23 20 18 17 17 15 13 8 7 6 4 8 2 1 2 8 6 10 8 1 2 7 7 6 9 7 6 8 8 10 11 8 6 11 15 13 10 10
34 33 31 30 32 29 29 29 26 24 20 18 17 17 14 10 7 9 5 3 6 6 7 11 0 8 2 4 5 10 8 11 8 14 7 8 6 11 8 10 7 13 9 13 15 6 9
34 33 32 31 31 29 31 30 28 26 21 18 18 16 12 7 9 9 7 7 9 6 7 21 17 11 13 6 4 9 7 9 8 7 8 8 13 19 7 10 9 4 5 12 9 9 9
35 35 34 32 33 30 30 33 29 26 22 19 18 15 10 7 8 10 14 17 4 12 6 10 14 10 6 8 10 13 7 6 9 15 9 8 12 6 8 10 11 8 10 11 13 11 13
36 36 36 35 33 34 30 33 31 28 23 20 19 16 10 12 6 10 9 12 18 5 5 11 9 8 8 7 7 2 4 6 7 8 12 3 5 11 13 7 5 8 4 11 4 11 13
40 39 37 36 36 34 33 30 33 28 24 21 21 17 16 18 3 8 5 1 5 5 5 16 13 6 7 11 2 10 4 5 12 7 7 8 9 9 9 5 5 17 10 7 7 11 12
42 40 39 37 38 36 34 31 32 29 26 23 22 17 17 16 13 11 6 5 5 5 7 8 9 11 11 11 6 6 10 4 5 7 7 7 3 4 7 3 2 5 4 6 6 10 7
38 41 40 38 40 37 35 35 32 32 27 24 23 20 25 14 4 5 5 5 6 9 7 12 15 14 15 10 9 11 14 14 11 8 10 7 7 4 6 7 7 9 9 8 9 8 10
35 36 40 39 40 39 38 35 33 33 28 25 23 19 25 19 13 4 7 7 12 14 13 3 15 14 12 10 9 9 12 16 17 16 13 10 9 12 8 10 5 10 13 9 7 7 11
40 36 38 41 40 39 38 34 33 35 29 26 18 14 11 21 20 6 8 10 14 9 11 9 11 13 12 9 6 11 14 14 16 13 13 10 5 6 2 3 8 9 8 7 7 3 7
39 34 36 40 42 38 39 35 33 36 33 30 18 9 20 17 21 11 7 16 19 2 5 11 16 15 14 14 11 13 12 4 7 5 4 1 2 4 5 5 5 8 2 5 6 6 11
38 40 37 39 42 40 39 37 33 38 36 30 20 6 13 25 24 8 11 17 16 7 8 11 16 12 13 13 14 15 12 9 6 7 5 6 8 7 4 10 11 7 10 7 5 3 5
37 42 32 42 41 40 38 37 34 41 38 32 19 10 21 35 10 12 14 22 8 11 9 8 7 9 11 11 13 11 13 6 6 7 10 6 5 5 13 5 5 10 8 11 5 6 3
36 35 42 40 41 37 36 36 35 46 47 30 12 8 17 22 13 13 19 21 12 10 12 12 11 9 8 10 10 11 11 5 5 8 5 6 7 7 7 6 7 9 10 9 4 1 7
35 40 43 39 41 40 33 35 35 50 47 32 11 11 6 7 15 18 23 18 17 6 9 10 10 10 10 8 6 7 8 4 5 5 3 1 12 10 10 5 1 12 12 12 13 7 9
30 30 41 41 40 36 36 35 38 51 47 25 11 13 14 13 18 21 21 19 21 12 9 12 11 15 13 8 9 8 9 6 6 5 6 5 8 12 12 5 5 8 9 13 16 15 13
28 29 33 38 38 37 37 33 43 50 46 21 11 13 14 17 23 20 19 22 23 18 14 14 10 15 11 9 11 10 12 10 7 10 9 5 5 2 5 8 8 11 12 13 14 16 16
29 30 31 34 36 36 37 34 49 50 50 14 17 4 12 12 23 18 17 19 21 15 2 4 12 8 10 5 8 9 9 4 3 7 10 5 5 4 5 3 4 6 15 16 15 16 12
32 32 31 33 35 37 31 41 51 54 53 26 14 7 6 13 17 18 19 18 17 16 11 5 6 8 6 13 13 12 11 8 6 5 4 5 4 2 1 2 1 4 1 4 8 14 16
32 30 32 34 38 38 33 39 54 54 57 30 9 7 7 4 12 23 20 18 16 8 9 11 5 5 16 8 4 4 2 2 3 3 3 3 4 2 3 6 8 9 5 1 3 6 6
30 32 35 37 34 32 36 40 53 52 59 28 16 10 8 9 12 22 17 19 10 10 7 4 6 10 4 2 2 5 4 4 5 6 3 4 1 4 3 3 4 4 4 1 1 6 7
29 32 35 34 38 33 36 46 46 51 57 37 7 13 10 7 13 12 13 15 13 10 6 6 8 4 2 2 2 3 4 2 4 5 4 3 1 5 6 3 5 3 3 2 4 3 5
29 28 29 34 37 43 44 44 44 49 52 45 7 4 8 6 6 6 9 11 14 11 7 9 7 2 3 3 3 3 1 4 2 1 5 6 6 3 2 2 5 6 5 1 4 5 6
27 31 31 36 35 41 40 41 46 46 49 42 6 4 5 2 5 2 6 5 3 13 9 12 6 10 7 4 2 2 2 2 0 3 2 3 3 1 5 1 5 6 4 3 4 7 9

GFSGBSN_925_spd_012.txt.gz
Wind_Speed
23 25 21 18 20 25 22 20 20 19 18 16 17 18 17 16 17 18 18 18 17 13 13 13 14 12 7 7 9 3 3 12 14 10 13 14 10 11 15 14 10 13 16 1 4 12 7
20 22 23 23 20 21 26 23 21 20 19 18 17 18 18 16 16 18 17 16 15 12 13 13 13 6 5 8 4 7 6 15 13 13 10 10 9 10 12 12 11 8 12 6 6 7 16
22 23 22 24 24 22 24 26 22 21 20 19 18 18 18 17 16 16 16 14 13 11 12 13 10 4 9 13 6 6 7 11 14 16 13 11 14 9 5 11 7 2 9 2 2 4 5
25 24 25 23 24 23 22 25 23 22 21 20 18 18 18 18 17 15 14 12 11 10 12 13 4 2 8 5 10 14 11 11 10 14 16 15 9 12 11 14 5 10 10 7 6 10 5
27 27 26 25 24 27 24 24 25 22 22 21 19 18 18 18 15 14 12 11 10 12 13 5 1 3 9 2 10 15 12 11 8 11 9 6 4 9 12 10 9 10 8 6 7 17 6
27 27 26 26 25 24 27 25 24 24 22 21 19 18 18 17 14 11 11 10 9 8 6 8 7 6 12 9 12 5 6 8 5 5 3 7 6 6 8 7 4 7 6 15 14 13 9
29 30 30 29 28 27 25 27 24 24 22 21 19 18 17 15 12 9 6 6 4 4 13 10 3 8 5 6 4 10 9 9 4 7 7 7 5 5 7 7 2 8 16 16 14 10 10
31 31 30 29 27 30 27 26 25 25 23 21 19 17 15 12 9 6 4 7 7 9 9 22 19 15 17 7 8 13 13 10 9 7 7 4 7 7 11 8 15 14 13 9 10 6 10
35 34 32 30 29 29 27 27 24 25 25 21 19 17 13 9 5 8 13 17 12 19 6 11 18 16 15 15 14 13 13 14 8 6 9 3 11 9 13 16 18 14 3 7 7 8 7
36 36 34 33 31 29 29 29 26 25 25 20 19 17 13 7 5 10 8 13 19 14 5 9 14 11 16 8 15 19 5 11 7 5 9 5 17 17 15 15 14 7 13 6 8 6 10
38 36 34 34 33 32 30 29 29 25 26 22 21 18 17 14 9 12 10 2 5 6 4 14 18 16 14 15 13 10 7 9 10 4 5 4 13 14 10 6 5 7 15 9 12 11 2
40 36 38 36 35 33 33 31 30 26 27 24 23 20 15 10 14 16 7 10 4 4 6 9 12 11 14 13 14 4 13 13 10 5 3 5 12 9 6 5 2 8 8 15 10 9 2
43 40 37 37 37 36 35 33 31 28 26 26 24 22 22 11 2 4 7 6 5 7 6 9 14 15 16 14 13 10 14 16 10 9 9 7 17 4 9 7 5 8 9 7 3 5 7
39 42 39 39 40 39 37 35 32 29 25 25 24 22 21 20 12 9 7 5 12 13 19 2 14 16 17 15 13 12 14 15 16 15 10 11 14 11 9 9 6 14 10 4 6 4 10
40 40 40 38 39 39 39 37 34 30 26 25 24 16 12 18 20 6 4 10 10 12 20 9 13 13 17 16 9 11 15 17 18 18 12 4 4 11 2 6 3 5 9 8 4 16 6
43 43 44 37 34 36 40 38 35 31 27 29 20 10 20 16 21 10 7 17 18 21 6 13 15 15 16 15 10 12 14 16 19 15 14 11 7 20 6 4 5 6 9 3 3 3 5
42 43 43 40 28 34 39 38 36 32 31 35 21 5 12 28 25 7 11 17 20 23 7 6 15 16 17 13 15 12 9 9 6 8 4 7 19 7 7 8 10 7 8 8 7 4 1
43 43 39 37 37 31 37 40 37 35 34 40 18 7 29 44 10 11 14 21 22 21 9 9 13 16 15 13 14 13 6 14 9 7 7 8 3 3 8 5 4 9 9 12 3 5 2
44 38 35 36 37 36 36 39 40 39 41 29 12 9 28 23 12 12 18 25 25 23 14 15 12 15 10 11 9 11 6 4 5 3 1 2 3 4 8 8 7 8 12 9 4 3 4
39 36 34 37 37 36 37 40 42 42 43 32 10 9 5 9 12 19 23 23 23 22 16 14 15 12 8 10 8 9 7 3 3 3 4 4 5 8 7 11 7 13 12 12 11 3 3
32 35 36 39 40 39 37 41 42 43 44 31 6 11 10 11 17 18 21 19 24 16 14 16 17 18 12 9 10 9 8 7 3 3 1 2 7 11 14 15 2 12 7 11 13 10 10
35 34 36 36 37 41 39 40 44 44 42 24 8 10 11 12 19 21 21 26 25 21 16 13 14 13 14 10 10 11 12 8 7 8 8 4 2 4 3 10 14 12 14 13 14 12 13
36 33 35 39 40 38 42 40 39 44 45 14 20 11 7 14 21 19 19 23 24 19 17 15 18 15 15 8 11 10 10 4 5 10 9 7 3 2 2 5 7 5 8 15 15 14 10
34 31 30 33 46 43 42 44 42 45 52 21 25 8 5 16 20 22 24 24 21 22 12 8 11 13 9 14 13 12 12 8 8 5 6 4 3 2 1 1 1 9 1 5 5 9 11
35 31 28 32 39 38 39 42 40 41 45 41 24 1 4 9 16 25 25 24 21 18 13 11 8 7 13 9 4 4 2 3 1 4 4 6 4 1 2 4 7 10 2 2 1 3 11
32 32 28 29 33 36 39 38 37 35 45 45 26 9 5 8 17 29 21 18 11 7 7 4 8 6 4 2 2 4 4 5 6 6 4 3 4 1 3 2 4 1 4 3 1 3 8
31 28 28 28 31 36 39 39 38 40 41 41 20 17 7 7 13 21 14 14 13 11 7 10 4 3 3 2 2 2 3 3 5 6 4 3 0 4 3 2 5 2 4 2 2 3 6
28 27 27 29 34 39 39 43 35 46 36 39 32 30 9 4 10 11 12 14 8 9 6 10 6 3 2 2 3 2 2 3 2 5 6 5 5 3 1 2 6 5 4 2 4 3 7
27 27 29 34 33 35 35 38 37 42 34 36 22 29 19 9 4 15 16 11 4 6 6 10 6 10 6 4 1 3 2 2 3 2 3 2 4 2 7 3 4 5 4 4 1 2 4

GFSGBSN_925_spd_015.txt.gz
Wind_Speed
17 21 22 23 19 17 17 21 20 18 17 17 16 16 16 19 20 20 18 18 18 18 16 15 17 19 7 3 8 5 2 10 10 9 10 10 7 6 7 5 7 8 7 6 9 12 8
20 19 18 21 21 20 19 19 20 20 18 17 17 16 16 18 20 20 20 19 18 16 14 13 15 14 2 5 3 3 6 13 10 10 12 15 7 5 8 6 4 7 8 4 5 11 4
21 20 19 19 17 19 21 21 20 20 19 18 17 16 17 18 20 20 22 19 19 14 13 11 12 7 5 15 6 1 3 8 11 13 5 21 16 7 7 9 14 4 3 1 4 5 2
24 25 22 20 20 17 19 23 21 20 19 17 18 17 17 18 19 21 21 18 16 14 11 11 11 3 7 10 6 13 15 11 12 17 17 18 11 4 2 7 10 4 4 2 5 5 6
27 27 24 23 22 20 18 23 24 19 18 18 17 17 17 18 19 21 20 18 15 11 10 6 5 5 9 12 7 16 15 16 21 15 19 19 5 1 6 4 5 3 2 5 2 14 3
28 26 25 26 24 23 20 18 26 21 19 17 17 17 17 17 18 20 19 15 12 10 4 1 9 6 9 5 14 16 18 16 4 4 2 3 1 2 2 2 2 5 8 3 7 6 4
30 29 26 26 26 24 23 20 18 22 19 17 17 16 16 15 16 17 14 8 2 1 3 9 5 6 2 10 13 5 15 12 4 4 3 4 2 5 9 2 6 4 2 7 8 10 6
34 33 30 30 28 28 25 26 23 20 21 17 17 16 15 13 14 12 7 5 4 5 8 17 20 17 26 17 4 4 15 7 6 6 3 0 4 7 1 9 7 9 7 10 10 6 5
37 33 32 29 28 28 26 24 22 21 19 18 17 16 14 11 12 11 12 19 13 15 3 9 10 8 8 11 6 10 7 8 6 6 1 3 4 5 4 13 6 4 6 3 5 3 3
40 37 34 32 30 29 28 24 25 23 20 18 17 17 14 10 6 7 8 16 1 5 3 6 10 6 8 10 8 15 15 10 5 6 5 5 5 6 8 11 8 3 4 6 3 5 2
44 40 34 32 33 32 31 29 27 24 23 19 18 19 17 14 6 4 7 12 11 5 3 6 10 8 8 8 2 7 11 3 3 2 4 6 2 6 10 13 6 6 7 2 2 4 7
43 42 38 36 32 34 31 31 28 26 24 21 20 21 17 12 13 20 13 12 5 1 6 5 9 10 9 8 8 7 7 2 2 5 2 7 6 3 4 6 6 2 2 3 3 3 2
41 41 39 35 34 36 35 35 31 28 25 23 24 25 25 15 5 12 7 4 2 4 6 6 13 10 11 7 8 5 5 4 5 4 3 4 5 5 5 3 3 1 3 3 4 5 3
44 43 41 41 36 31 36 36 33 30 26 25 23 27 27 25 20 9 5 2 7 10 11 2 9 12 10 8 10 9 6 8 9 6 4 4 5 6 3 5 6 3 6 5 5 1 5
51 44 40 38 38 38 34 35 36 32 28 25 19 28 14 29 23 9 3 9 8 7 13 4 8 9 9 11 7 8 9 9 11 9 7 4 1 7 14 10 4 3 1 5 6 4 2
42 46 38 36 33 35 35 39 39 36 29 27 21 13 13 23 20 8 5 11 6 14 10 8 8 8 8 10 4 9 9 9 9 14 8 6 3 1 13 14 8 4 3 5 3 5 4
46 43 38 41 35 34 37 41 41 38 32 29 13 5 14 25 20 4 11 9 13 20 15 7 11 8 9 7 17 7 7 10 13 6 9 6 5 5 6 9 9 1 3 3 3 5 4
45 42 40 38 36 38 42 40 43 41 36 35 7 8 26 38 7 5 12 10 12 18 14 14 2 5 7 6 8 9 9 4 9 8 10 7 5 3 11 14 7 6 4 6 5 4 2
44 42 40 37 38 40 42 42 44 45 45 32 3 5 30 31 12 11 7 14 16 19 19 7 3 3 2 4 4 7 5 4 4 6 5 2 1 2 6 5 6 4 5 4 4 3 5
48 44 41 38 39 41 44 38 41 46 48 31 4 8 6 8 6 18 17 17 20 13 20 17 6 7 5 8 16 9 2 3 5 3 1 6 2 6 6 7 3 3 5 6 5 4 3
46 45 41 39 37 40 43 42 36 45 50 29 4 8 8 11 16 10 19 15 21 14 14 11 7 8 7 4 2 5 5 3 3 3 3 5 4 1 3 5 5 1 5 7 5 6 7
43 43 42 39 41 39 41 42 39 45 50 29 3 9 5 4 16 16 19 20 25 20 16 14 6 10 7 5 7 5 8 5 6 2 4 1 2 2 2 5 7 4 8 7 6 3 2
40 41 42 40 41 43 43 40 41 44 49 7 11 6 8 8 18 17 22 22 21 20 12 14 9 5 7 5 6 6 5 8 6 7 5 5 5 3 3 4 6 6 7 5 6 5 3
38 39 41 42 41 41 43 40 44 41 55 10 19 4 5 8 15 22 21 17 25 21 11 10 8 8 4 11 8 8 12 14 15 11 2 5 4 3 2 3 2 8 4 3 4 3 7
37 37 34 33 39 39 41 40 42 44 51 36 12 4 2 3 14 19 21 24 17 16 14 4 1 9 10 5 4 4 5 5 6 8 5 3 4 2 4 4 5 8 3 3 3 4 5
32 33 32 31 36 37 39 43 45 44 45 42 33 14 5 2 16 21 22 21 10 7 3 4 6 1 7 3 4 5 4 6 5 4 7 6 5 4 2 4 6 6 2 3 4 2 5
31 29 30 32 37 43 42 43 44 44 38 37 23 21 6 3 5 12 21 17 6 5 6 5 2 3 5 3 3 3 3 6 5 8 4 3 3 5 2 2 7 6 5 1 6 6 3
28 28 30 26 33 40 38 40 40 39 37 32 27 26 5 3 6 3 10 7 5 5 6 11 4 3 3 4 4 3 3 4 4 7 7 6 5 3 3 2 5 5 4 7 6 3 6
27 25 24 27 30 34 38 39 36 39 40 28 16 23 18 5 5 16 12 22 9 9 7 4 8 7 5 4 2 4 2 2 3 2 3 1 6 5 6 5 7 2 7 5 6 5 3

GFSGBSN_925_spd_018.txt.gz
Wind_Speed
18 18 20 22 22 21 18 15 19 17 16 15 15 15 15 16 17 19 20 22 22 22 19 16 16 16 5 3 8 7 2 9 10 11 7 4 2 1 2 4 2 6 10 9 12 10 4
21 20 21 20 18 23 22 20 17 17 18 16 16 15 15 16 17 19 20 22 22 20 16 14 14 9 3 3 3 3 6 10 7 11 6 6 4 4 5 4 2 5 9 1 11 10 4
23 24 22 21 19 18 18 21 20 16 18 17 17 15 15 16 16 18 20 22 21 18 15 12 11 4 1 13 1 2 4 7 9 11 3 7 6 3 2 7 5 7 4 7 5 8 5
27 27 26 24 22 21 18 17 23 18 18 20 16 15 15 16 17 18 19 22 20 17 13 11 8 2 7 6 8 16 14 9 11 11 14 13 9 4 2 4 6 4 4 4 5 8 4
30 29 28 27 25 25 21 19 17 22 19 19 17 15 15 16 16 17 19 21 19 13 10 8 2 1 10 11 10 16 18 13 17 16 14 17 4 1 6 3 5 5 0 2 6 7 4
32 30 31 29 28 27 24 23 18 21 21 21 18 15 14 15 16 17 19 20 13 10 2 2 4 4 8 3 9 12 13 17 6 4 2 1 4 3 3 4 2 1 4 2 4 6 5
35 33 31 30 29 28 27 25 20 17 24 21 18 15 14 14 14 15 18 6 2 1 3 8 5 4 5 12 10 11 15 11 3 4 3 1 4 3 6 8 4 5 2 5 5 4 4
40 37 34 31 31 28 28 27 24 20 18 22 16 14 13 12 13 14 12 1 4 2 8 15 18 11 23 8 6 5 14 5 5 5 2 3 4 6 7 1 5 4 6 8 7 9 4
42 42 39 36 34 33 31 29 25 23 22 18 17 15 13 9 11 12 7 9 8 13 3 7 7 6 6 11 8 7 9 5 5 5 7 6 6 1 4 5 3 5 3 4 5 4 6
46 44 43 40 35 33 30 29 28 23 21 18 17 15 15 8 6 4 6 16 10 11 2 6 6 7 6 6 5 9 10 8 3 9 7 4 2 5 2 4 3 6 12 6 2 4 4
44 46 44 42 38 35 31 31 28 24 21 19 18 17 16 13 3 4 2 11 7 2 3 5 6 4 9 8 3 3 14 3 10 3 6 6 4 4 4 6 4 10 7 2 1 5 4
46 47 46 45 42 37 35 34 30 27 23 20 19 18 18 15 14 15 16 16 1 4 7 4 7 7 6 6 4 3 4 5 4 5 1 4 2 5 7 7 8 3 2 5 5 4 3
49 51 52 45 45 41 36 32 32 29 26 21 20 21 25 17 5 5 4 2 3 4 5 5 6 8 8 7 5 6 3 4 5 3 2 1 4 3 2 0 3 4 5 3 3 4 4
48 50 48 48 45 41 38 36 30 29 26 22 22 19 27 26 16 3 3 2 10 8 8 4 7 10 9 7 8 6 5 6 2 4 3 4 4 3 4 4 3 5 7 5 4 3 4
47 47 48 46 46 40 38 35 36 29 27 23 20 21 17 30 22 6 3 9 6 7 5 4 2 8 6 6 7 7 9 8 9 9 7 5 4 5 5 3 5 3 2 3 6 3 1
50 47 38 43 40 39 39 39 32 33 32 24 22 11 12 28 23 7 6 15 7 9 6 2 7 7 9 9 8 8 8 7 7 10 7 6 3 2 4 4 1 3 3 3 3 4 2
53 51 49 42 39 41 40 38 34 32 33 27 22 6 20 25 20 3 12 11 16 21 8 4 5 3 9 8 10 7 8 6 8 6 8 5 3 5 3 4 9 4 3 1 4 4 4
54 51 49 49 47 47 42 39 35 39 34 32 12 8 31 36 8 7 16 12 9 21 7 8 5 10 9 10 8 8 10 7 6 9 9 8 5 4 9 7 7 2 6 5 5 4 0
55 52 47 46 46 44 45 39 36 41 42 33 6 6 28 31 11 14 6 18 17 13 6 5 5 7 3 5 5 4 4 3 7 5 8 8 2 2 6 3 3 6 6 4 5 4 6
55 52 51 47 45 48 42 39 40 42 45 36 5 9 6 8 9 20 19 15 20 14 18 12 8 5 2 3 2 6 4 3 3 7 1 7 4 7 7 7 4 3 3 5 5 4 4
55 52 50 49 50 46 42 40 42 45 45 41 6 7 8 14 17 15 20 14 21 14 12 10 10 16 8 5 2 3 5 2 2 4 4 4 5 4 4 2 2 0 2 1 5 5 6
55 51 50 48 47 45 45 43 42 45 46 34 7 4 7 3 16 20 19 23 25 20 13 18 12 12 8 6 8 8 8 6 6 2 5 2 3 1 4 3 1 3 5 4 4 3 5
54 52 49 47 46 45 44 42 42 45 49 10 20 7 6 9 19 19 20 24 26 19 14 26 10 12 5 9 6 6 6 6 9 7 3 4 6 3 5 4 5 5 7 6 5 3 5
50 48 48 48 47 44 41 43 43 46 45 15 21 3 5 9 13 21 24 22 25 20 21 12 20 10 3 15 9 9 12 11 8 6 4 6 5 3 3 3 2 7 4 5 8 4 7
46 46 47 47 44 41 44 40 44 42 46 26 10 6 3 4 12 14 25 20 16 17 19 24 7 7 14 5 5 5 5 6 5 5 5 2 5 2 4 3 4 6 3 6 5 1 3
43 44 45 45 45 43 40 45 43 40 48 40 31 9 3 2 13 14 19 22 15 13 13 5 0 2 4 3 4 5 5 6 4 3 5 7 5 4 2 4 6 7 4 2 5 2 5
41 42 43 43 41 40 40 42 43 40 48 36 24 23 3 4 3 17 16 20 16 5 9 3 4 2 4 3 3 3 3 7 6 8 4 3 3 5 2 2 7 8 5 2 5 6 6
37 37 37 37 38 38 39 41 44 41 44 36 29 25 9 4 6 2 11 15 14 10 8 4 4 3 3 4 4 4 4 5 4 6 7 6 6 3 3 3 6 6 3 7 6 4 8
33 34 34 35 35 39 41 42 41 37 39 40 8 28 24 3 4 18 22 20 23 10 6 1 7 5 4 4 1 4 2 2 5 3 3 1 6 6 8 6 6 4 5 5 7 6 4

GFSGBSN_925_spd_021.txt.gz
Wind_Speed
20 20 20 21 24 23 22 20 18 17 18 17 15 14 14 14 15 17 18 19 21 21 19 18 16 17 7 3 8 5 3 9 12 12 7 4 4 3 3 3 1 3 6 4 8 7 5
22 23 22 22 23 21 21 23 21 20 20 18 18 16 15 14 16 17 18 20 20 21 18 15 13 12 3 4 4 3 3 9 9 12 7 5 4 5 4 5 3 5 4 4 4 7 6
27 26 25 25 24 22 20 20 20 22 20 18 18 17 15 15 15 17 19 20 20 21 16 11 10 7 1 12 1 1 4 6 8 12 4 8 4 1 3 6 3 4 2 4 2 5 4
30 30 28 27 26 25 22 20 19 19 21 19 18 19 15 15 15 17 19 20 21 20 14 7 5 2 7 4 8 12 11 17 11 11 10 6 5 4 2 5 8 3 5 4 0 5 1
33 30 30 29 27 26 25 23 21 19 20 20 19 19 15 15 15 16 18 21 23 18 9 4 1 3 9 8 11 14 18 11 10 9 7 9 2 0 5 2 4 6 3 3 2 4 6
38 36 33 31 30 28 26 25 23 20 20 21 19 17 16 16 14 16 18 21 16 7 0 2 1 2 7 2 4 5 9 21 2 2 3 1 5 2 3 3 1 3 2 2 5 4 5
42 41 38 34 32 30 29 27 25 23 20 19 20 19 18 15 13 15 17 7 3 1 2 7 4 4 4 12 6 4 7 10 4 3 2 2 4 4 6 6 3 5 1 2 4 6 3
37 41 40 40 36 32 30 26 26 24 20 18 18 18 15 13 12 12 11 1 4 1 7 12 14 8 16 5 5 4 11 6 5 4 2 3 3 8 5 1 3 1 4 5 5 3 5
44 39 42 41 38 36 32 28 25 25 23 20 20 17 13 12 11 11 6 6 10 9 4 7 6 6 5 12 7 7 8 4 4 5 6 5 5 3 2 3 4 4 1 3 4 3 5
45 41 42 41 41 39 37 34 32 29 24 20 19 17 13 12 7 7 4 3 12 10 3 6 5 7 7 7 4 10 10 7 1 10 5 5 5 3 1 1 4 5 2 4 3 1 3
48 45 43 43 41 42 39 36 32 26 26 20 19 17 16 18 3 4 5 9 3 1 3 4 5 5 8 10 3 6 10 4 6 5 6 8 3 4 4 7 4 8 5 4 1 3 5
48 48 44 40 42 42 42 39 34 31 25 22 19 20 17 21 15 12 4 6 3 5 7 5 7 7 6 5 3 1 5 2 4 5 3 6 3 6 8 3 5 2 2 7 5 3 2
52 49 47 43 43 43 42 41 37 31 26 25 21 22 21 18 5 11 7 1 2 4 4 5 6 7 6 6 4 4 4 5 6 3 3 2 2 3 4 1 1 3 5 2 2 3 4
54 52 49 45 44 43 43 43 40 33 30 27 23 21 21 27 14 4 5 3 9 7 8 6 2 4 8 6 6 6 5 4 2 3 3 5 4 3 2 3 5 3 6 5 3 3 3
56 54 52 48 46 45 43 42 41 34 28 27 22 21 18 27 23 11 2 11 6 6 4 4 3 5 4 4 6 6 8 7 9 8 7 5 5 0 2 4 5 1 2 3 6 3 3
59 56 53 49 47 47 47 47 42 38 29 26 22 12 14 23 27 6 6 16 7 6 3 5 8 5 8 7 7 7 8 5 6 10 6 7 1 1 4 2 2 4 5 2 3 2 3
61 58 54 50 47 50 52 50 44 37 37 28 16 4 16 24 20 3 13 12 15 16 3 3 4 3 7 7 9 6 7 5 6 5 5 6 4 4 2 5 8 0 2 4 4 4 4
63 60 56 51 44 45 46 51 44 38 38 32 10 7 28 36 8 6 15 8 6 17 4 4 3 6 5 8 8 9 11 10 9 10 9 7 6 4 8 3 2 4 5 5 4 4 2
62 61 58 53 46 46 45 51 47 43 41 30 8 5 27 31 12 16 8 19 13 9 7 6 5 4 1 7 6 7 7 5 8 8 9 8 1 2 7 5 1 2 4 5 4 3 6
61 63 60 56 52 49 49 46 48 46 41 26 6 8 7 11 15 17 19 12 23 11 14 3 3 3 2 3 2 7 5 2 5 2 7 10 4 8 9 8 4 3 5 5 5 3 4
58 64 62 58 55 54 50 51 50 47 44 32 4 8 7 15 22 21 19 15 19 16 12 11 6 8 3 4 1 4 3 4 3 5 1 4 6 5 3 4 4 4 5 6 7 6 6
56 66 63 59 57 55 54 52 51 47 47 30 6 5 7 4 18 25 17 23 25 23 7 10 16 6 12 9 8 9 6 4 6 2 3 2 3 4 3 2 3 4 7 7 5 3 7
53 64 62 58 55 54 56 55 53 52 47 11 20 5 5 10 18 19 28 23 27 18 16 14 17 11 5 11 11 7 2 5 9 10 5 5 7 4 4 2 2 6 8 8 6 5 6
56 62 61 57 53 54 55 54 57 52 54 19 20 2 4 10 13 21 20 21 24 25 20 15 21 4 5 5 4 6 10 11 9 7 4 6 5 3 3 3 2 7 2 4 5 3 4
64 60 58 56 54 54 54 54 54 52 49 45 11 11 3 3 16 12 22 25 16 18 16 19 7 15 10 4 3 5 5 5 4 7 5 3 5 3 4 4 4 5 4 7 6 4 2
60 58 55 53 54 55 54 54 50 44 47 44 33 27 4 1 10 10 19 21 18 16 12 10 14 2 6 3 3 5 5 5 2 4 6 6 6 4 3 4 8 8 4 3 6 2 4
53 52 52 52 52 51 50 49 43 43 47 47 12 19 2 2 4 14 13 16 13 11 7 5 6 4 3 3 3 3 3 5 7 10 6 3 3 5 3 3 7 7 4 5 5 7 8
46 45 46 46 46 46 45 42 39 41 42 41 20 15 3 1 5 5 3 8 10 14 12 5 4 1 3 4 4 4 3 6 4 6 7 7 7 4 3 2 6 6 5 8 6 2 7
39 40 40 41 41 40 40 39 39 41 41 38 11 16 14 2 4 14 19 28 18 20 12 5 4 6 6 3 2 3 3 2 5 3 2 2 6 6 8 6 4 4 3 3 6 9 6

GFSGBSN_925_spd_024.txt.gz
Wind_Speed
22 22 21 23 22 22 24 25 24 21 20 19 20 21 20 18 17 17 17 18 20 20 21 21 19 16 7 4 7 6 3 13 13 10 5 2 1 3 1 3 2 3 5 4 5 7 3
25 24 23 23 24 22 22 22 21 22 23 22 22 21 20 20 17 17 18 17 20 20 20 18 15 12 3 5 3 2 7 13 10 10 5 5 3 4 3 4 4 6 4 5 4 5 5
27 27 26 27 25 24 23 22 22 20 20 23 21 19 20 20 19 17 18 19 20 20 20 15 10 7 1 13 3 3 7 5 7 8 3 6 3 2 2 4 3 4 3 5 2 4 3
32 31 29 28 26 27 24 23 22 23 20 20 21 20 18 20 19 19 19 20 21 22 20 10 6 3 7 5 6 12 10 8 7 8 9 7 2 3 2 3 7 5 2 3 2 4 4
31 35 33 32 29 27 26 24 23 23 22 20 19 19 19 20 19 19 20 22 23 24 10 4 1 2 9 6 7 9 16 7 5 6 7 8 1 1 5 3 4 6 1 1 1 6 3
34 30 36 35 32 31 28 26 24 23 23 21 20 19 17 18 17 20 20 23 18 6 1 2 2 2 7 2 2 2 7 12 3 3 0 2 5 2 3 4 2 3 1 1 2 4 2
37 35 29 36 36 33 31 28 27 23 22 22 20 17 17 17 19 18 17 10 4 3 3 7 4 3 5 10 4 5 6 10 2 4 2 2 4 5 8 6 2 1 2 1 2 3 5
38 39 37 32 34 36 34 29 26 24 22 21 18 16 16 15 17 14 12 1 2 1 8 11 13 8 14 2 4 4 14 5 5 5 2 5 5 8 5 3 4 5 2 2 2 3 1
40 40 40 41 34 34 36 34 29 25 22 21 20 17 13 13 13 11 10 9 5 7 4 7 6 5 6 12 7 6 9 5 4 6 4 5 5 1 5 4 3 3 1 2 3 2 4
44 42 42 40 39 37 35 36 34 29 24 20 19 16 14 11 7 8 7 0 12 9 4 6 5 6 7 7 4 11 13 6 2 8 8 5 4 5 5 5 5 1 3 0 4 3 2
48 46 45 43 41 37 40 37 37 34 29 26 23 18 13 14 2 4 1 9 6 3 4 3 3 5 6 10 5 7 8 4 8 6 6 7 3 4 3 6 4 4 5 2 3 3 4
51 49 47 44 42 41 39 39 39 36 31 26 22 17 15 13 18 12 3 14 3 4 7 5 6 6 6 4 3 4 4 3 4 5 1 6 1 3 5 3 3 4 3 5 4 3 2
52 51 50 47 44 42 42 41 38 38 34 28 23 19 19 12 6 19 14 4 2 5 4 4 5 5 5 6 5 4 7 7 6 5 3 1 3 3 3 3 4 6 5 3 3 3 4
55 53 52 49 46 44 41 40 39 39 35 31 28 21 21 23 20 5 5 3 9 6 11 5 2 4 9 5 6 4 6 6 2 5 3 6 5 3 1 4 6 4 7 5 3 2 3
56 55 53 52 49 46 42 39 47 40 36 32 24 23 20 22 19 11 3 9 5 5 4 3 4 4 4 5 5 5 8 8 8 7 7 5 5 2 2 2 4 4 3 4 7 3 3
55 55 54 54 52 47 44 40 39 41 37 32 27 13 19 23 24 11 5 16 9 5 2 2 5 5 9 6 6 9 8 6 7 10 5 7 0 1 2 2 1 4 7 4 3 3 3
54 54 54 54 55 50 45 43 38 39 39 33 22 6 12 26 24 4 15 13 19 13 3 2 2 4 5 7 8 6 10 3 8 5 5 5 4 3 0 5 7 2 2 5 5 4 4
46 52 54 55 57 53 49 45 41 44 41 36 12 7 30 35 10 9 19 10 13 18 5 6 2 4 5 6 6 7 10 10 9 10 9 6 6 5 8 1 2 3 6 6 5 4 1
48 47 49 55 59 56 51 48 46 47 47 32 5 4 33 30 13 16 12 21 8 17 11 6 5 5 2 2 3 7 7 4 9 8 9 7 1 1 8 4 2 3 4 4 5 3 6
48 46 49 52 59 58 54 51 48 51 54 35 4 8 7 13 13 18 22 16 23 7 7 3 2 3 1 4 4 4 7 2 7 8 8 8 4 9 10 7 5 4 6 5 6 4 4
51 49 47 49 60 59 54 50 53 55 56 37 5 6 6 13 22 17 22 15 21 17 15 10 3 6 3 2 2 4 2 3 3 5 4 7 7 5 6 6 5 6 5 8 7 6 6
52 51 48 48 60 59 52 51 55 66 58 22 6 4 4 2 17 22 16 24 25 23 10 10 8 8 7 5 5 1 1 4 6 5 5 0 4 4 2 3 2 4 6 7 5 4 4
53 50 48 46 62 60 53 54 64 61 55 11 11 5 3 12 19 19 28 20 21 17 16 8 16 11 3 16 13 9 6 4 2 7 8 7 7 4 4 2 3 6 7 8 6 5 7
51 49 48 46 62 61 59 57 62 60 59 17 19 2 4 6 14 21 21 19 22 23 9 21 12 3 6 2 4 4 5 5 7 5 2 7 7 3 3 3 1 7 1 4 9 6 5
47 46 46 54 63 62 62 64 64 60 54 24 20 8 3 5 11 12 19 23 14 15 16 12 9 9 1 6 2 1 4 3 3 6 4 2 6 3 5 4 5 4 5 7 8 8 7
42 45 42 59 64 62 60 62 67 60 57 34 19 19 2 3 8 9 17 15 18 15 7 12 12 7 4 3 2 5 6 6 4 3 3 6 7 4 3 4 8 8 5 4 4 4 8
36 35 53 61 61 59 56 58 58 57 54 39 24 20 2 2 2 7 12 15 12 12 4 6 11 4 6 2 2 3 5 4 6 10 6 3 4 5 2 3 7 8 3 5 6 8 9
26 52 57 57 56 54 54 54 53 51 47 39 35 25 5 3 7 7 2 9 10 15 9 4 7 4 2 6 4 4 4 6 4 4 7 7 7 4 3 3 7 8 4 9 7 1 6
51 55 53 52 52 51 51 50 47 45 44 33 10 33 19 5 3 6 12 18 8 7 12 6 6 7 6 4 1 4 3 1 3 3 1 3 7 6 9 7 5 6 4 6 5 6 7

GFSGBSN_925_spd_030.txt.gz
Wind_Speed
19 20 21 20 19 18 16 15 15 16 16 16 18 20 20 19 16 17 17 18 20 22 23 24 25 24 10 7 6 3 3 14 12 9 11 8 7 4 2 2 3 10 7 6 7 2 1
23 20 21 23 21 21 19 18 16 17 17 16 16 16 16 17 16 14 16 19 19 22 23 23 24 21 5 9 2 4 12 15 10 12 9 7 1 1 2 4 5 4 11 9 1 5 5
23 26 26 21 24 24 22 21 20 19 17 16 16 16 16 14 16 17 16 18 19 21 24 25 22 7 6 13 2 5 12 9 8 11 7 6 3 5 2 4 2 9 7 3 6 7 3
24 24 25 28 26 22 24 23 22 20 19 17 16 16 16 15 12 17 17 16 20 23 25 23 10 2 8 4 6 8 11 6 5 9 5 3 4 5 4 4 5 5 4 3 6 6 4
25 25 25 25 29 29 25 24 24 23 19 18 17 16 16 15 12 15 16 16 19 23 20 8 4 4 6 4 6 14 14 5 8 7 7 4 7 4 4 7 8 6 4 2 4 7 3
27 27 27 27 27 26 31 27 25 26 22 19 18 16 17 16 12 13 14 16 19 13 2 2 5 6 7 4 6 7 16 9 3 8 5 7 7 8 7 8 7 3 6 5 9 9 8
32 31 31 30 28 26 26 31 29 25 25 22 19 17 15 14 12 11 10 6 6 5 6 8 0 6 1 1 4 10 10 12 9 7 11 9 10 11 12 7 2 3 4 5 1 4 5
36 35 34 34 33 30 26 25 31 28 26 24 20 17 15 14 13 8 7 4 2 3 9 15 21 19 18 4 4 10 14 12 11 14 9 6 12 6 4 5 8 8 6 4 4 2 5
39 38 37 36 35 34 31 27 28 31 26 26 22 17 16 13 12 9 10 9 2 1 6 9 11 11 9 15 11 16 18 12 15 16 14 13 4 5 7 7 9 8 8 4 3 2 4
43 42 41 40 38 37 35 32 30 27 31 26 24 19 15 11 6 8 7 6 5 7 5 6 7 8 10 11 12 17 24 16 8 17 12 11 3 7 7 7 9 10 9 3 4 5 4
44 44 43 41 40 40 38 36 34 32 29 30 23 21 17 15 6 6 5 2 9 7 7 6 5 4 8 18 12 17 26 11 18 13 9 9 10 10 9 8 9 5 8 4 4 3 4
45 45 44 44 42 41 41 39 37 34 29 29 28 23 19 12 15 7 7 3 4 5 9 4 7 9 9 15 9 14 13 9 9 13 13 10 2 5 6 3 8 8 7 4 3 2 6
47 46 47 45 45 43 41 41 38 37 32 29 28 25 25 16 13 13 7 3 6 9 3 7 7 8 14 12 12 17 21 22 17 17 17 16 13 6 5 7 6 13 10 9 7 6 7
48 48 48 47 47 45 43 43 42 37 33 30 29 27 28 25 25 20 12 6 13 12 17 3 4 10 11 13 14 15 22 22 24 21 14 15 15 13 10 12 9 17 16 8 6 6 4
48 48 49 48 48 48 45 44 44 41 36 30 25 26 27 25 25 21 8 14 15 19 19 8 8 8 11 12 8 14 20 26 25 22 17 16 17 5 5 4 7 7 11 3 3 1 4
50 49 50 51 50 49 48 46 46 44 38 32 24 17 26 23 25 12 7 25 17 13 12 17 23 11 11 15 14 16 17 19 25 24 19 9 12 7 7 5 4 7 11 6 5 6 7
47 51 50 51 53 52 50 49 48 47 41 35 23 6 16 28 22 4 10 25 29 15 14 12 13 19 12 10 17 15 14 7 23 20 20 13 11 7 7 11 13 5 6 3 3 3 6
49 38 39 44 54 56 53 52 51 51 44 39 14 10 25 36 11 8 11 32 28 23 18 10 9 11 10 12 13 18 19 14 16 22 22 20 11 12 12 3 6 9 12 13 7 8 1
35 38 39 40 38 57 54 54 55 56 53 38 9 4 34 34 14 14 26 31 27 18 22 12 13 13 8 8 8 15 12 7 13 19 15 14 12 12 14 7 4 9 11 11 4 0 9
43 44 42 40 40 41 53 54 58 61 60 37 7 7 6 14 18 27 32 27 28 22 23 18 12 9 7 10 4 3 8 4 9 16 3 19 15 19 13 15 12 12 13 14 14 9 11
46 46 45 44 41 42 45 48 61 64 64 36 8 7 10 14 21 30 30 28 30 32 22 15 15 19 13 8 5 4 3 5 5 5 8 13 19 16 18 17 18 19 16 18 18 16 15
48 49 48 48 47 45 42 42 59 67 66 22 8 8 13 15 27 30 30 30 31 28 25 25 19 15 14 13 4 5 5 8 1 5 9 7 10 12 16 16 13 16 18 19 19 20 14
47 48 50 50 51 48 47 47 61 68 66 9 12 20 12 14 27 21 24 32 28 29 29 21 21 16 17 16 12 4 6 7 11 3 8 7 8 7 14 7 7 6 17 17 18 17 16
45 49 52 52 53 51 48 47 49 70 63 30 27 13 10 13 18 24 34 29 31 28 26 19 15 18 5 2 3 1 5 6 8 12 10 6 8 5 5 5 7 9 2 17 19 18 16
38 41 52 56 52 50 49 48 44 72 65 32 32 10 8 10 18 25 26 28 21 20 24 21 8 11 6 0 6 5 3 4 8 6 10 10 7 4 5 9 11 4 6 8 12 16 17
22 27 50 53 50 49 47 47 53 74 68 27 29 19 4 11 14 15 23 22 20 19 18 22 13 8 6 3 4 6 7 10 6 5 2 6 6 7 4 8 9 10 13 11 5 13 13
17 24 39 45 46 47 44 38 63 68 64 28 18 25 8 7 6 12 14 18 25 18 14 17 13 9 6 3 4 4 6 8 12 4 5 5 4 11 10 6 7 4 8 11 9 13 1
15 34 35 39 48 46 45 43 62 64 61 28 15 20 13 4 5 4 2 16 17 16 16 15 10 6 6 9 6 4 4 5 8 12 5 9 10 5 7 6 10 12 10 11 12 2 4
31 33 37 41 45 44 42 48 60 57 54 28 16 14 12 5 4 3 6 18 18 28 15 16 10 15 8 8 6 5 2 1 7 6 4 5 6 4 9 7 3 20 14 16 6 5 5

GFSGBSN_925_spd_033.txt.gz
Wind_Speed
19 18 16 16 19 20 19 18 17 16 15 16 16 17 17 18 20 19 18 18 20 21 21 22 24 25 15 8 13 1 3 10 12 8 10 9 10 11 12 4 5 10 8 7 6 3 2
19 20 21 21 18 19 20 21 19 18 18 17 16 16 18 16 16 17 18 18 21 21 22 22 24 23 9 15 2 2 9 13 11 12 10 9 8 7 11 9 10 6 10 12 4 5 5
20 20 21 20 26 26 18 21 21 21 19 19 17 16 17 19 16 18 18 18 23 22 21 22 23 11 8 19 5 6 12 13 12 13 8 8 8 10 8 12 3 11 13 10 9 7 6
21 20 20 21 22 22 27 24 20 21 21 20 19 17 17 18 18 18 18 19 21 21 21 21 18 6 8 6 8 11 14 12 11 13 7 6 8 11 12 12 14 14 13 4 14 8 7
24 24 23 23 23 22 22 25 29 23 21 21 20 18 18 18 19 18 18 18 19 22 21 15 5 6 9 6 12 16 18 16 13 13 9 7 8 13 12 13 15 13 11 11 17 7 9
26 26 26 25 25 24 24 23 23 30 23 22 22 20 18 18 18 18 18 16 17 21 8 6 10 6 10 9 10 18 20 13 14 12 10 11 9 13 13 14 13 10 14 10 5 8 9
28 28 28 28 29 27 26 22 22 23 27 23 22 21 20 19 18 17 16 14 7 7 15 10 4 13 2 5 5 14 23 17 12 14 15 15 13 14 18 15 16 10 8 12 10 14 8
35 33 32 31 31 31 29 27 24 22 23 25 21 20 18 18 17 18 12 7 6 6 12 17 22 21 20 2 8 16 22 17 16 17 16 13 14 16 17 8 8 11 12 13 5 4 5
37 36 35 33 33 33 32 29 29 27 24 24 26 18 17 16 16 19 16 14 4 6 8 15 20 24 21 22 15 19 22 24 19 20 18 16 8 11 7 12 13 13 16 3 7 4 10
38 37 36 35 34 34 34 32 30 28 27 23 24 19 16 12 11 16 17 13 11 5 6 16 8 8 19 16 18 24 29 24 17 21 20 16 12 9 12 16 15 15 12 5 4 8 5
39 39 39 38 37 36 35 34 33 30 29 24 22 21 16 18 9 8 7 5 8 5 7 3 14 4 8 18 8 25 28 24 23 20 15 17 16 14 15 15 12 8 10 7 12 12 7
42 41 41 41 39 38 36 35 34 33 31 26 25 21 19 17 16 19 10 6 9 7 16 9 9 11 12 22 21 13 25 25 21 19 20 19 15 17 16 14 7 6 6 9 13 12 9
43 43 43 42 41 39 38 36 35 32 32 30 24 21 24 21 14 17 14 7 7 14 10 15 9 14 17 17 24 19 27 28 23 22 22 22 15 14 11 10 12 11 12 10 8 9 10
44 45 44 43 43 41 40 38 37 35 31 32 25 23 24 26 21 11 5 5 16 21 29 4 9 13 17 15 23 21 23 25 28 25 15 18 20 22 15 19 15 18 17 12 5 9 9
45 45 45 45 45 44 41 40 38 38 33 31 26 24 26 27 23 19 3 12 22 25 22 28 7 12 16 18 14 22 27 27 30 28 24 19 22 23 19 18 17 12 16 21 19 6 6
46 46 46 46 46 46 45 42 40 40 37 33 27 26 30 27 25 18 6 18 25 29 26 15 27 14 18 17 17 24 23 25 28 31 22 16 16 14 13 10 11 12 5 13 10 12 11
46 46 46 47 46 45 46 46 43 42 41 36 26 6 16 24 26 7 12 19 25 27 28 29 24 23 15 15 21 20 17 16 28 29 24 20 11 16 13 16 18 10 12 9 8 13 10
46 45 47 45 50 49 47 49 47 46 45 43 14 9 22 36 10 8 15 33 36 27 31 19 19 21 28 21 13 21 23 21 13 25 27 26 13 14 17 17 21 17 17 18 10 13 12
32 30 29 30 46 48 48 50 50 51 54 39 7 7 25 35 12 15 25 34 38 38 26 29 26 22 18 18 18 15 21 17 11 18 25 20 18 12 18 15 10 12 16 15 12 13 6
38 39 35 31 33 36 39 45 51 56 59 42 6 9 6 14 19 25 28 32 38 37 32 20 24 23 26 18 15 11 16 8 11 15 17 18 17 21 16 17 15 18 18 18 16 10 12
40 40 40 39 40 40 42 42 48 58 65 45 8 8 10 15 20 32 33 26 34 35 34 29 23 24 24 21 19 17 11 5 6 9 7 15 21 17 24 20 20 22 24 22 20 18 18
41 41 41 43 45 44 43 43 45 56 70 26 6 7 12 14 28 31 27 31 33 35 32 30 26 25 20 23 8 2 10 2 11 11 13 16 15 20 22 22 21 19 18 20 22 23 21
46 47 45 47 47 48 47 45 43 46 63 6 10 18 13 15 26 23 26 34 38 34 33 31 29 22 20 20 2 12 8 6 12 8 10 14 12 13 17 20 19 19 17 19 19 21 17
51 50 47 46 49 50 49 48 46 48 74 21 27 20 11 13 17 26 34 32 35 37 32 30 29 23 20 5 5 0 2 10 13 16 11 8 12 8 10 4 14 10 16 22 22 20 19
43 45 46 43 47 48 49 48 48 48 56 41 32 19 8 10 22 27 30 28 26 30 24 23 29 21 15 7 6 4 1 5 10 19 18 11 8 6 9 11 13 18 13 12 15 17 17
33 44 44 45 47 49 50 48 48 48 46 46 32 33 9 13 15 25 22 26 20 24 14 23 19 6 13 7 7 10 9 7 7 7 10 12 9 8 7 15 18 12 16 13 14 14 13
19 16 36 41 44 49 49 48 49 46 50 43 22 36 13 7 6 9 15 19 23 21 18 16 11 9 13 9 7 7 12 10 9 7 5 5 5 11 12 9 9 11 13 12 13 12 5
12 11 22 42 40 49 46 49 45 36 61 40 28 28 17 6 10 6 16 16 18 17 16 16 14 9 10 11 8 6 6 9 11 16 10 7 8 6 10 12 14 7 9 14 14 12 6
4 5 22 38 47 46 45 48 42 47 55 27 26 24 10 2 3 5 2 5 10 28 17 12 14 17 9 9 6 5 4 2 12 10 17 9 9 6 8 6 8 14 16 16 16 10 7

GFSGBSN_925_spd_036.txt.gz
Wind_Speed
19 18 18 19 19 16 16 17 18 18 17 17 17 17 18 19 18 20 20 19 19 21 22 23 24 26 20 7 13 5 4 7 11 9 13 10 10 11 16 12 8 11 14 11 11 6 4
17 18 19 20 20 22 21 18 17 19 19 19 19 18 18 19 20 20 22 21 21 21 22 22 22 23 11 16 12 4 6 11 12 13 13 12 10 11 9 15 13 7 11 13 14 7 2
19 19 19 19 21 22 21 23 24 19 19 20 20 19 19 20 21 21 22 22 22 21 21 20 19 14 11 21 11 5 10 14 14 15 13 10 8 8 13 14 12 11 14 16 13 9 3
21 21 21 21 21 21 19 21 22 25 23 20 19 20 20 20 21 23 23 24 23 21 21 20 17 8 10 18 17 21 16 17 16 15 14 8 6 10 12 15 16 16 18 16 4 9 8
24 24 23 23 23 23 21 22 21 21 24 25 21 20 21 21 21 24 26 27 24 20 21 17 8 8 11 8 16 19 19 20 17 14 14 11 8 12 13 14 13 15 15 9 6 11 11
25 25 26 26 26 26 24 23 22 22 22 22 23 20 19 21 21 23 28 28 18 20 12 9 12 8 10 13 16 18 21 22 16 13 12 12 8 12 13 12 13 7 13 16 7 7 12
27 28 28 27 27 28 26 24 24 23 21 20 21 22 19 18 20 20 23 14 6 6 10 9 9 10 17 12 1 13 22 21 14 15 16 17 12 15 18 18 19 16 8 16 7 4 6
34 31 31 31 31 31 28 28 26 26 24 20 20 21 18 16 17 17 16 7 9 7 12 17 23 24 31 24 8 13 23 17 18 20 19 17 18 18 18 18 18 16 12 18 9 12 8
34 34 32 31 30 31 30 29 28 27 26 24 21 20 17 13 15 16 16 24 19 16 8 18 22 22 25 25 21 14 22 23 20 20 20 20 18 19 16 19 15 12 16 14 9 6 11
36 35 33 32 31 31 31 31 30 29 26 25 22 18 13 9 11 14 13 17 16 11 7 13 15 10 26 21 25 27 27 24 18 23 23 20 21 15 10 13 13 15 15 5 12 10 8
38 35 35 34 34 33 32 30 29 29 28 26 23 18 10 13 16 10 8 11 4 3 7 6 22 9 8 23 6 25 32 24 25 23 15 20 19 18 14 16 17 14 2 13 12 13 13
38 37 37 37 36 34 33 32 30 27 28 27 25 21 14 11 16 22 14 13 3 5 12 7 9 11 11 20 26 9 25 22 23 24 22 22 19 19 16 16 17 13 9 10 12 11 9
39 39 39 38 37 36 35 33 30 29 27 27 27 23 18 15 12 13 14 3 7 13 8 13 14 10 14 15 23 23 23 25 23 22 21 22 24 18 15 18 17 10 9 8 10 9 7
40 40 40 39 38 37 36 34 32 29 28 26 26 24 20 18 20 11 4 7 16 21 30 5 12 18 17 15 19 22 22 23 25 24 16 17 17 23 15 19 18 15 16 8 7 4 7
42 42 41 41 40 39 37 36 34 31 29 26 25 24 22 21 23 14 3 10 17 27 21 28 24 7 14 17 17 18 24 22 23 26 21 18 22 20 17 17 18 15 16 16 18 5 3
43 42 42 42 41 41 40 38 36 34 31 28 27 18 24 22 24 15 4 10 24 28 30 27 26 22 19 16 18 17 23 18 23 26 24 19 13 21 21 18 18 17 12 11 11 10 7
45 44 44 43 44 43 42 41 38 38 35 31 25 5 15 28 24 6 13 21 27 33 26 31 24 23 21 26 16 20 22 22 25 24 24 20 14 11 17 21 18 13 12 7 16 10 6
46 48 45 47 46 44 43 43 41 43 39 39 12 8 20 36 10 8 17 39 30 23 30 29 26 25 23 19 23 16 22 18 16 25 27 25 11 13 17 14 17 17 16 17 10 9 6
48 47 48 44 47 46 44 45 44 46 47 36 7 5 24 35 14 17 22 31 32 29 31 31 28 27 23 16 12 16 21 17 16 18 25 20 18 10 17 16 19 19 18 13 15 10 12
48 45 45 42 33 33 35 43 45 46 53 38 6 7 6 13 18 27 27 32 32 32 29 30 29 28 21 20 10 13 19 15 4 9 6 8 13 21 15 14 9 14 20 17 18 9 11
45 42 38 37 39 40 37 38 43 51 57 45 6 6 9 14 20 30 26 19 34 27 31 30 28 30 25 21 10 16 21 28 11 12 8 6 16 18 21 20 20 17 20 20 20 21 17
37 36 38 39 40 40 40 37 36 43 53 39 6 5 13 12 23 27 26 30 31 28 26 32 29 30 26 22 14 18 11 15 11 10 11 5 12 15 23 21 19 22 22 20 21 22 20
39 40 40 41 41 42 43 44 43 43 47 9 8 14 11 17 23 20 25 31 35 27 22 28 32 24 25 21 11 2 5 5 11 10 8 11 10 17 19 19 13 21 21 19 16 18 17
42 43 43 45 46 47 47 47 48 49 51 23 11 14 6 11 18 24 31 35 34 31 25 23 26 28 24 12 9 9 3 8 4 14 12 12 12 11 7 2 20 10 14 16 16 16 15
44 45 45 44 46 50 51 51 53 52 51 38 15 16 7 9 18 24 31 26 28 22 25 23 24 26 18 13 2 1 2 4 4 12 17 12 10 7 9 13 13 18 13 14 13 18 18
39 38 38 39 42 47 52 52 54 53 50 40 19 32 5 13 16 29 19 25 18 19 19 22 24 17 17 11 8 9 8 6 6 6 6 18 14 8 5 15 18 5 11 12 17 13 11
35 33 33 35 38 45 49 49 53 52 51 42 21 42 10 4 12 14 14 16 20 21 15 17 21 15 17 5 3 8 8 9 7 6 5 2 8 11 10 6 7 7 13 16 17 8 7
30 30 28 27 23 42 44 48 49 50 46 41 28 45 24 2 11 9 9 12 15 17 14 14 7 4 8 11 12 8 6 8 11 10 8 7 3 4 7 8 12 6 11 17 9 6 5
9 16 23 24 30 39 40 43 47 48 45 37 9 36 28 1 1 7 6 10 15 17 12 12 14 14 4 5 6 6 3 4 6 4 5 3 8 3 5 2 5 7 15 9 6 5 7

GFSGBSN_925_spd_039.txt.gz
Wind_Speed
13 15 17 17 18 18 18 19 18 16 16 16 18 18 18 19 20 23 24 23 25 24 22 22 23 23 16 5 9 16 9 7 9 10 9 9 8 8 7 7 9 4 5 7 7 9 4
15 14 16 18 18 19 19 18 20 22 18 16 18 19 19 20 21 22 25 25 26 26 22 20 20 19 3 10 11 13 9 9 11 12 11 16 8 8 5 8 7 6 7 6 9 10 4
18 17 18 20 20 20 19 19 21 20 21 20 19 18 19 20 21 24 25 28 28 28 23 19 18 13 8 19 12 7 8 14 11 16 10 22 19 3 7 8 7 14 7 7 11 8 4
20 19 20 21 22 22 22 21 19 20 21 20 21 20 19 20 22 25 28 31 31 31 26 18 15 8 8 21 19 19 19 21 17 18 26 24 10 5 3 7 8 7 7 5 10 9 1
22 21 21 22 24 23 24 23 22 20 20 20 20 21 20 20 20 23 29 35 32 23 19 13 8 6 10 15 10 26 23 17 20 22 21 14 5 3 7 4 6 5 8 8 8 5 5
22 22 23 24 25 26 25 24 24 24 23 20 18 19 19 20 19 21 27 37 25 20 11 6 8 4 9 5 11 11 21 17 10 6 4 5 2 4 4 2 6 8 4 4 1 5 3
24 24 26 27 28 28 25 25 25 24 24 22 20 20 18 19 19 19 24 16 3 1 6 9 10 7 11 16 18 10 17 15 11 6 9 5 4 8 10 13 17 13 12 6 4 6 7
27 28 28 27 27 28 27 27 27 26 25 24 21 20 19 18 17 15 16 5 7 4 10 13 19 23 32 25 12 14 20 8 11 12 7 7 15 14 15 18 17 16 10 7 6 1 4
31 32 28 28 28 27 26 27 26 26 25 24 22 19 18 16 14 17 20 20 20 25 5 14 19 15 18 16 21 21 11 15 9 9 12 13 12 18 19 18 16 15 7 5 2 5 10
32 32 31 29 28 28 28 27 26 25 25 24 21 19 16 12 10 15 10 10 16 15 5 7 9 8 12 13 9 31 19 14 6 16 15 12 19 20 17 18 12 9 6 9 5 1 4
32 32 33 32 30 28 28 27 26 25 23 23 22 19 14 10 15 8 7 21 20 5 5 7 6 11 10 18 9 14 36 8 19 16 9 14 7 12 17 12 6 11 7 1 2 3 2
34 34 33 31 30 30 29 27 26 25 23 22 21 20 14 11 16 22 23 27 11 3 10 7 6 7 8 19 9 3 13 14 6 15 17 15 14 15 13 9 8 9 4 3 3 1 4
36 35 33 32 31 30 30 28 27 25 23 21 21 20 18 15 10 9 14 8 2 7 5 6 4 9 7 8 18 14 7 12 12 15 17 16 22 14 12 7 7 6 2 1 3 2 6
37 37 35 33 33 33 31 29 28 26 24 21 20 20 21 18 20 18 10 2 9 10 17 2 1 1 10 8 10 14 16 12 16 13 5 13 14 19 12 14 8 10 7 5 4 2 4
38 38 36 34 34 34 32 31 29 27 24 22 19 20 19 22 21 12 3 9 10 6 13 15 17 14 12 8 6 13 16 16 12 19 15 11 18 6 16 9 12 10 6 8 4 3 2
40 39 38 37 36 35 33 31 31 28 25 23 21 14 18 27 20 12 4 18 19 23 14 11 9 6 13 9 7 9 8 8 17 20 19 6 7 18 15 10 10 9 3 2 0 4 4
41 40 40 39 37 36 34 33 31 30 28 26 20 4 15 29 20 3 12 16 22 15 13 15 15 13 14 11 9 8 11 11 9 14 20 19 15 12 11 13 15 4 7 3 4 5 4
43 42 42 40 40 38 37 36 34 33 31 30 9 6 24 35 7 5 20 12 10 12 18 17 8 12 14 17 15 11 5 6 14 10 17 18 4 13 22 11 11 9 13 10 5 5 4
44 44 43 41 40 40 38 38 38 36 36 27 5 4 27 30 12 17 18 29 24 21 13 5 14 9 8 17 9 4 2 5 10 13 10 11 15 14 12 12 9 19 13 10 5 5 7
46 44 43 43 42 40 40 40 38 39 41 38 6 6 5 13 14 25 23 26 25 9 23 21 17 15 19 17 14 10 3 3 11 14 23 14 14 15 20 5 5 6 7 8 9 5 5
45 44 43 43 42 40 40 42 42 43 43 40 6 6 7 13 23 20 18 7 26 18 16 17 15 23 21 9 15 10 3 6 6 12 15 6 10 22 18 14 12 14 21 19 17 14 10
45 43 41 39 37 35 35 29 36 37 39 31 6 5 6 7 18 22 19 28 28 20 17 20 19 17 14 19 21 13 4 3 1 9 11 11 12 6 7 19 20 15 16 21 16 6 14
43 41 37 36 35 35 36 38 39 40 38 15 10 9 7 13 15 17 28 34 30 17 16 23 17 18 19 23 8 5 4 9 9 4 6 11 10 7 15 3 6 12 18 14 9 15 11
39 39 39 38 39 39 40 42 43 44 43 27 9 6 7 6 18 23 28 27 26 19 20 15 23 16 25 5 4 6 6 5 6 7 11 4 16 4 5 4 8 16 5 13 10 13 12
39 40 41 41 42 42 43 44 45 47 45 37 13 5 6 10 17 21 24 20 25 16 20 20 22 9 7 9 8 4 2 2 7 7 12 6 4 5 3 11 5 12 7 12 10 12 7
41 42 42 42 45 46 47 47 48 49 47 40 20 23 1 5 12 26 21 23 14 16 17 17 18 10 4 4 4 7 4 3 4 1 5 10 2 2 5 8 16 3 15 8 1 7 4
39 37 40 41 41 43 45 48 50 51 49 41 19 29 5 1 6 18 15 19 19 12 11 14 8 7 3 3 3 6 6 6 4 3 5 3 3 3 11 4 7 6 9 1 5 5 5
34 35 38 40 41 41 42 45 49 54 52 46 27 36 14 1 4 7 9 8 14 14 12 5 3 7 2 4 4 4 4 5 3 6 7 8 8 5 4 4 6 14 6 12 6 6 9
27 25 25 23 31 37 38 40 43 51 53 52 10 34 28 3 3 11 19 16 12 13 11 6 7 5 6 4 4 4 3 6 15 9 3 4 6 7 8 5 8 13 7 11 15 11 11

GFSGBSN_925_spd_042.txt.gz
Wind_Speed
12 13 13 13 12 12 11 12 16 20 22 21 18 19 20 21 20 21 22 24 24 24 23 22 20 20 14 3 11 16 16 11 9 8 8 4 2 2 3 4 6 4 7 7 6 6 4
15 14 15 16 16 16 15 14 16 19 21 21 20 21 19 20 22 22 26 28 28 26 25 21 18 16 3 6 11 8 11 10 8 11 6 7 6 4 5 4 2 5 8 7 7 3 8
16 17 17 17 16 17 19 18 18 18 20 21 20 20 20 21 22 24 27 29 31 30 27 22 16 10 8 19 7 4 5 7 7 12 5 15 8 5 2 6 2 7 6 9 7 4 5
16 18 18 17 18 18 18 19 21 21 22 22 22 21 21 22 22 24 26 30 33 31 27 15 9 5 8 22 21 25 23 26 22 19 22 16 14 5 3 1 8 5 5 2 6 3 4
18 19 18 17 19 19 20 20 21 20 20 22 23 21 20 22 22 24 27 33 36 29 22 6 3 4 11 11 10 18 23 11 9 18 22 18 6 4 2 3 4 2 5 5 11 8 6
19 19 19 19 21 22 23 23 22 22 22 22 21 21 21 22 23 23 28 36 29 12 3 4 3 3 8 5 7 11 9 21 6 4 3 6 2 3 3 3 6 5 4 4 7 5 3
21 20 20 21 23 22 21 22 24 24 25 24 22 20 20 21 22 22 25 16 5 1 1 8 8 7 12 7 15 7 8 11 4 4 7 3 4 8 11 10 8 5 7 10 14 10 6
22 21 22 23 23 22 21 22 24 23 23 23 21 20 19 19 21 19 17 2 6 5 10 14 19 23 33 14 9 12 4 7 6 9 6 3 14 10 9 8 8 9 10 17 10 4 5
23 23 23 24 24 23 23 24 23 22 21 20 20 19 17 17 20 16 11 13 15 20 5 8 16 14 13 15 15 18 5 6 5 6 9 12 8 14 10 11 10 13 10 13 9 3 3
24 24 24 24 24 24 26 24 23 22 21 20 19 16 15 14 13 8 6 7 26 14 4 8 7 9 13 12 9 26 14 7 6 14 8 8 12 12 8 11 11 11 13 10 7 3 4
25 25 25 25 25 26 25 23 22 21 20 20 17 16 12 11 12 6 9 26 30 2 5 6 6 5 8 16 9 8 19 6 14 10 8 9 7 12 16 19 11 14 15 9 5 4 2
26 25 26 26 28 27 25 23 22 21 20 19 18 15 12 14 16 20 20 25 8 2 9 6 4 7 9 9 3 4 8 4 3 6 9 9 5 6 8 10 10 10 3 3 3 2 1
27 28 27 26 28 26 26 25 24 22 20 18 17 17 15 19 4 8 16 10 2 7 4 4 2 6 6 8 4 2 7 11 8 7 13 12 20 15 7 7 13 5 5 2 3 2 6
29 28 28 28 29 27 26 25 26 24 21 19 17 17 18 24 20 14 9 3 11 3 11 4 6 9 1 4 5 4 6 5 10 4 4 12 6 17 12 17 6 8 9 6 6 3 5
30 30 30 30 30 29 27 25 26 25 22 19 16 17 17 26 20 6 1 8 6 5 6 7 13 6 4 1 5 9 8 8 7 14 7 6 8 8 15 11 8 6 5 8 5 2 2
32 32 33 32 32 29 28 27 25 25 23 20 17 11 13 23 18 9 4 19 7 6 4 9 3 2 3 5 4 6 2 4 7 10 14 5 6 6 16 5 12 13 5 2 1 6 4
34 34 34 34 34 33 30 30 27 25 24 20 17 4 12 25 18 4 11 12 10 12 9 3 6 4 3 5 6 3 4 6 2 3 17 9 10 8 5 5 15 2 4 1 5 5 6
37 37 37 37 37 35 34 32 29 27 25 21 7 5 20 30 8 6 19 12 4 9 8 12 5 5 9 4 3 3 3 5 4 2 4 5 7 12 23 17 10 7 11 11 6 4 3
38 39 39 39 39 37 37 34 31 29 28 11 4 3 20 29 12 19 15 16 18 3 6 3 7 10 2 4 3 5 6 2 5 4 4 6 4 4 7 9 5 8 5 10 5 4 9
41 41 41 40 39 39 37 35 34 33 32 28 3 5 4 10 6 18 20 21 20 11 21 18 12 8 5 3 6 7 2 3 2 5 8 7 5 5 11 7 5 5 11 10 11 6 5
42 43 42 41 41 39 38 37 37 35 35 28 6 5 5 9 18 14 15 10 24 19 12 10 6 19 9 5 5 7 4 2 2 2 4 4 6 12 17 14 18 19 9 9 14 7 9
45 43 43 42 40 40 38 38 38 38 36 29 5 5 4 1 14 22 20 23 24 17 12 13 15 4 17 20 9 8 7 5 5 2 3 2 2 10 10 13 16 20 20 16 15 10 7
46 44 43 42 39 38 36 34 35 36 37 13 19 7 3 10 11 17 31 34 16 17 10 24 14 15 13 7 9 7 6 6 5 7 3 5 3 5 6 16 13 11 27 19 6 7 6
45 43 41 39 36 33 31 31 32 33 40 28 7 6 5 6 15 27 16 20 21 19 22 12 16 15 10 7 2 1 2 0 2 2 5 6 6 4 7 14 8 18 4 16 16 9 7
43 40 36 34 34 34 35 35 36 37 37 31 20 5 7 10 16 19 22 21 19 18 19 20 21 16 4 4 1 5 3 2 6 6 8 4 5 3 4 7 16 5 12 3 7 14 8
37 35 35 37 37 38 38 38 40 40 41 39 24 29 3 3 17 19 19 16 13 16 14 22 12 10 6 2 3 9 5 3 5 4 7 7 3 4 3 4 6 9 7 12 2 8 9
36 37 38 39 40 40 40 42 43 44 44 39 15 32 8 2 4 10 13 16 12 12 9 5 16 4 5 4 5 5 7 6 6 9 6 3 0 7 4 4 8 11 23 8 11 7 15
40 42 42 40 38 37 39 41 44 47 45 40 29 36 20 3 5 5 11 6 11 15 12 4 3 3 2 7 4 4 4 6 4 7 7 8 8 5 5 4 10 2 11 5 6 4 13
30 30 32 35 37 37 40 42 45 46 50 46 12 36 26 4 2 6 15 19 13 20 13 7 6 6 6 4 4 2 2 1 6 3 4 4 7 5 9 7 4 1 1 6 5 5 4

GFSGBSN_925_spd_045.txt.gz
Wind_Speed
12 13 13 13 13 13 12 13 13 14 15 16 17 19 19 22 23 24 25 27 30 28 28 28 25 21 10 3 10 10 11 9 9 9 8 4 5 5 4 4 3 5 4 6 8 7 2
13 14 14 15 16 15 15 17 18 17 15 17 16 19 20 23 25 27 27 27 30 28 28 27 23 15 4 6 6 7 7 7 10 12 7 7 5 5 3 4 4 4 5 10 7 6 4
14 14 14 15 16 17 19 19 20 20 19 18 17 19 21 23 24 27 28 29 31 30 30 28 21 10 7 17 5 2 3 5 7 8 4 7 5 2 2 3 2 2 6 8 5 6 6
15 15 15 17 16 16 17 21 21 19 20 19 20 19 20 22 24 26 30 32 34 34 33 28 12 5 9 16 17 18 19 23 19 17 17 10 5 2 3 1 5 4 0 4 2 4 2
16 15 16 16 17 17 18 21 24 21 21 20 21 21 19 20 26 28 32 34 36 37 27 11 5 5 11 9 8 9 14 10 17 18 13 7 4 6 3 5 4 3 4 4 8 3 4
16 16 16 16 18 20 19 20 22 21 23 23 23 22 21 21 25 28 33 38 23 5 7 8 4 2 8 5 3 14 11 16 5 3 3 5 2 4 2 4 6 6 4 3 4 5 3
18 16 17 18 18 20 20 20 20 22 23 23 22 21 20 20 22 25 31 18 6 2 3 8 5 6 6 10 8 3 7 10 5 4 6 4 4 9 12 8 3 3 2 4 7 9 4
19 18 18 18 19 20 20 20 21 22 22 21 19 18 17 19 20 21 21 3 4 3 11 14 19 22 31 11 10 14 4 5 6 6 6 1 16 6 8 5 5 4 5 8 11 12 8
20 20 18 20 19 20 20 20 22 22 20 19 19 17 16 17 18 17 6 7 7 14 6 7 11 11 12 16 15 20 6 3 5 7 10 7 5 14 11 6 6 7 6 8 8 6 1
21 20 20 20 20 20 20 22 22 21 19 18 17 17 15 13 12 6 5 4 23 14 4 7 6 8 7 8 7 20 18 8 5 14 7 6 16 5 5 10 8 6 9 12 8 1 5
22 23 21 21 20 22 23 22 21 20 19 18 17 16 14 11 9 5 7 22 24 3 5 3 4 1 8 12 3 9 22 5 9 7 8 9 6 9 10 16 7 9 4 9 11 6 3
23 22 23 22 22 23 23 22 20 19 18 18 17 15 13 12 13 17 17 20 6 2 8 6 4 5 7 9 4 4 7 5 6 3 2 10 3 6 9 7 10 8 4 5 1 3 3
24 24 24 24 23 23 23 22 20 21 20 20 17 16 16 16 4 6 13 8 3 6 6 5 4 1 3 6 4 2 9 12 8 6 9 4 10 3 1 2 2 4 3 3 3 1 6
24 26 24 24 24 24 25 23 20 18 20 21 18 16 19 22 19 16 6 2 11 3 7 5 5 10 2 4 5 2 6 8 5 3 4 10 5 11 6 14 6 7 9 5 6 3 5
26 26 25 24 25 26 26 25 21 19 20 20 17 19 19 20 17 7 2 9 4 4 4 6 9 3 4 5 1 3 4 7 9 8 6 5 6 4 6 9 11 5 5 7 3 3 2
27 26 25 26 27 28 26 25 22 21 20 19 17 10 14 20 17 10 3 14 9 3 7 4 5 5 7 8 5 3 1 2 3 7 10 4 3 5 5 5 6 8 4 2 2 4 5
29 27 27 28 29 28 27 27 25 23 22 18 14 4 11 24 20 4 9 9 10 18 12 6 1 4 3 5 6 7 2 2 5 5 4 6 5 4 5 4 6 2 3 3 3 4 8
31 29 29 30 29 30 29 27 26 24 21 18 6 4 21 34 6 4 13 12 10 5 4 10 3 5 5 2 5 2 4 3 4 3 3 1 1 5 17 14 5 1 5 6 7 6 4
34 30 31 31 32 33 31 30 28 25 22 8 3 2 21 25 11 14 8 11 8 3 2 1 4 1 3 3 4 5 4 2 3 4 3 3 3 4 7 6 2 6 7 8 2 2 16
33 34 33 33 35 34 33 32 30 28 26 22 2 4 4 7 3 16 11 14 13 11 15 4 2 4 2 3 3 4 4 5 7 3 7 6 2 3 2 5 8 7 15 8 12 7 3
36 37 37 37 38 36 36 34 33 30 28 20 4 5 4 8 13 7 17 10 20 15 10 6 9 13 6 4 3 4 7 6 4 2 3 2 3 2 5 6 10 15 16 18 16 12 13
39 39 40 40 39 39 38 37 35 31 28 23 4 4 3 2 10 19 16 21 17 18 11 16 7 2 9 13 14 6 3 1 5 2 3 3 5 1 4 6 2 13 20 18 19 14 8
42 42 42 41 42 41 40 38 36 33 31 14 15 6 2 6 10 17 22 18 16 14 17 15 13 14 10 18 10 14 12 11 7 5 4 5 4 2 5 2 6 8 5 13 17 17 9
44 44 44 44 43 42 40 39 37 36 41 28 10 7 6 8 15 13 16 22 22 19 17 15 20 9 11 6 4 5 6 8 8 7 5 6 6 3 4 1 3 9 3 14 18 20 15
47 46 45 43 42 41 39 36 36 36 39 36 19 11 7 13 7 16 15 13 18 18 17 18 10 9 3 6 4 4 3 1 7 8 8 5 5 2 2 2 7 9 6 2 8 24 23
48 44 43 42 39 35 31 31 32 33 34 39 28 19 3 6 14 7 7 15 8 14 11 13 7 8 3 3 1 3 4 4 3 4 5 5 3 3 3 2 6 18 5 11 12 20 5
40 39 37 35 33 33 33 33 33 34 35 31 13 27 4 3 2 10 9 8 5 9 4 7 11 5 5 3 3 4 5 4 4 8 5 3 1 7 4 4 8 8 1 5 1 7 16
29 31 32 33 34 35 36 36 36 37 37 35 27 30 20 2 3 5 3 5 10 13 7 6 4 5 2 6 4 4 4 5 5 6 7 7 8 4 4 4 8 5 3 7 4 22 15
34 35 36 36 37 39 40 39 37 39 41 40 12 31 24 3 2 12 17 15 10 16 13 10 7 6 7 4 4 3 2 1 5 4 4 4 6 5 9 7 6 5 3 7 7 8 17